Location: Izdebno
(52.6670°N, 16.2170°E)
Time: 04:46:35
(UTC+02:00)

Transit 2A - Pass Details

Date: 26 February 2024
Orbit: 596 x 956 km, 66.7° (Epoch: 21 April)

Event Time Altitude Azimuth Distance (km) Brightness Sun altitude
Rises 20:12:52 0° 226° (SW) 2,844 9.3 -25.5°
Reaches altitude 10° 20:15:07 10° 229° (SW) 1,934 8.4 -25.8°
Enters shadow 20:18:50 60° 267° (W) 692 5.9 -26.4°
Maximum altitude 20:19:24 68° 312° (NW) 651 - -26.4°
Drops below altitude 10° 20:23:48 10° 36° (NE) 1,986 - -27.0°
Sets 20:26:08 0° 40° (NE) 2,928 - -27.4°
